Tracking 33057 objects as of 23-Jan-2026
HD Live streaming from Space Station
objects crossing your sky now

STARLINK-33752

Track STARLINK-33752 now!
10-day predictions
STARLINK-33752 is classified as:


NORAD ID: 63580
Int'l Code: 2025-076M
Perigee: 488.1 km
Apogee: 492.2 km
Inclination: 43.0 °
Period: 94.3 minutes
Semi major axis: 6861 km
RCS: Unknown
Launch date: April 14, 2025
Source: United States (US)
Launch site: AIR FORCE EASTERN TEST RANGE (AFETR)
Your satellite tracking list
Your tracking list is empty




NASA's NSSDC Master Catalog

Two Line Element Set (TLE):
1 63580U 25076M   26022.94903585  .00024154  00000-0  88381-3 0  9994
2 63580  43.0011 220.1315 0003013 282.9569  77.0946 15.27599392 44839
Source of the keplerian elements: AFSPC